[[{"header":{"parameterUnit":"m.s-1","parameterCategory":1,"la1":30.2991,"la2":30.254,"lo1":-89.0895,"lo2":-89.0444,"dy":0.0017,"dx":0.0017,"nx":28,"ny":28,"refTime":"2025-01-17T09:00:00:Z","depth":0,"parameterNumber":2,"parameterNumberName":"U-component_of_WINDS"},"data":[0,0,0,0,0,0,0,0,0,0,0,0,0,0,0,0,0,0,0,0,0,0,0,0,0,0,0,0,0,0,0,0,0,0,0,0,0,0,0,0,0,0,0,0,0,0,0,0,0,0,0,0,0,0,0,0,0,0,3.2427,3.2426,0,3.2399,3.2399,3.2399,3.2352,3.2351,3.235,3.2349,3.2326,3.2326,3.2327,0,0,0,0,0,0,0,0,0,0,0,0,0,3.2446,3.2446,3.2427,3.2426,3.2426,3.2399,3.2399,3.2399,3.2352,3.2351,3.235,3.2349,3.2326,3.2326,3.2327,0,0,0,0,0,0,0,0,0,0,0,0,0,3.243,3.2446,3.2427,3.2399,3.2396,3.2399,3.2399,3.2399,3.2352,3.2351,3.2349,3.2348,3.2326,3.2326,3.2327,3.2356,0,0,3.2328,3.2328,0,0,0,0,0,0,0,0,3.2431,3.243,3.2404,3.2401,3.2398,3.2377,3.2397,3.2384,3.2352,3.2369,3.2349,3.2347,3.2345,3.2343,3.2341,3.2355,3.2354,3.2328,3.2328,3.2328,3.2328,0,0,0,0,0,0,0,3.2432,3.2431,3.2416,3.2403,3.24,3.2391,3.2387,3.2395,3.2365,3.2367,3.2364,3.2361,3.2343,3.2341,3.2341,3.2353,3.2328,3.2328,3.2328,3.2328,3.2396,3.2397,0,0,0,0,0,0,3.2437,3.2432,3.2417,3.2415,3.2411,3.2392,3.2387,3.2385,3.2365,3.236,3.2362,3.2359,3.2341,3.234,3.234,3.2376,3.2328,3.2328,3.2329,3.2394,3.2396,3.2398,0,0,0,0,0,0,3.2437,3.2436,3.2418,3.2423,3.242,3.2393,3.2391,3.2386,3.2384,3.2361,3.2356,3.2365,3.234,3.2339,3.2353,3.2374,3.2329,3.2329,3.2392,3.2395,3.2397,3.2447,0,0,0,0,0,0,3.2438,3.2436,3.2445,3.2423,3.2419,3.2429,3.2392,3.2386,3.2384,3.2379,3.2362,3.2358,3.2339,3.2353,3.2354,3.2374,3.2329,3.239,3.2393,3.2396,3.2443,3.2451,3.2457,0,0,0,0,0,3.2439,3.246,3.2445,3.2444,3.2429,3.243,3.2429,3.2405,3.2386,3.2396,3.2382,3.2359,3.2372,3.2355,3.2355,3.2376,3.2389,3.2393,3.2396,3.244,3.2449,3.2457,0,0,0,0,0,0,3.2485,3.2456,3.244,3.2454,3.2445,3.2422,3.2434,3.2414,3.2412,3.2408,3.238,3.2376,3.2395,3.2387,3.2368,3.2406,3.2377,3.2381,3.2411,3.2419,3.2426,3.2428,3.2329,0,0,0,0,0,3.2496,3.2498,3.2473,3.2488,3.2485,3.2461,3.246,3.2443,3.2433,3.243,3.2416,3.241,3.2413,3.2415,3.2416,3.2442,3.244,3.2457,3.2464,3.247,3.2474,3.2492,3.25,3.241,3.2409,3.2409,0,0,3.2521,3.2505,3.2508,3.2497,3.2488,3.2494,3.2458,3.2463,3.2468,3.2431,3.2444,3.2435,3.2426,3.2447,3.2456,3.2441,3.2499,3.2474,3.2479,3.248,3.2496,3.2505,3.2513,3.2412,3.2411,3.2411,0,0,3.2568,3.2555,3.2567,3.256,3.2547,3.2532,3.2535,3.2517,3.2509,3.2522,3.2495,3.2502,3.2506,3.2503,3.2502,3.2553,3.2534,3.2555,3.2591,3.2609,3.2616,3.2622,3.2644,3.2652,3.2559,3.2559,3.2559,0,3.26,3.2604,3.2577,3.2586,3.2584,3.2551,3.2566,3.2561,3.255,3.2551,3.2534,3.2542,3.2534,3.2556,3.2569,3.2568,3.2574,3.2556,3.2617,3.2623,3.2628,3.2649,3.2657,3.2562,3.2561,3.2561,3.2561,0,3.2646,3.265,3.2663,3.2653,3.2653,3.2665,3.2643,3.2647,3.2631,3.2618,3.2635,3.2624,3.2624,3.2628,3.2612,3.265,3.2642,3.2621,3.2592,3.264,3.266,3.2667,3.2566,3.2565,3.2564,3.2563,0,0,3.2718,3.2697,3.2702,3.2699,3.2685,3.2689,3.2702,3.2702,3.2708,3.2703,3.2716,3.2723,3.2705,3.2704,3.2688,3.2703,3.2751,3.2682,3.2681,3.2697,3.2797,3.2813,3.2823,3.2737,3.2739,3.274,3.2798,0,3.2764,3.2782,3.2761,3.2786,3.2792,3.2763,3.2775,3.277,3.276,3.2766,3.2756,3.2763,3.2737,3.2737,3.2751,3.2742,3.277,3.2737,3.2752,3.2753,3.2757,3.2832,3.2848,3.2904,3.2805,3.2806,3.2807,0,3.2819,3.2817,3.2842,3.2831,3.2833,3.2843,3.2845,3.285,3.2845,3.2838,3.2839,3.282,3.2837,3.2808,3.2832,3.281,3.2816,3.2813,3.2815,3.2816,3.2784,3.2838,3.292,3.293,3.2818,3.2817,3.2817,0,3.2873,3.2877,3.2893,3.2892,3.2878,3.2888,3.2883,3.2877,3.288,3.2882,3.2885,3.2889,3.2892,3.2897,3.2883,3.2862,3.2911,3.2879,3.2908,3.2909,3.2919,3.2919,3.3006,3.292,3.292,3.292,3.292,0,3.2927,3.2944,3.2918,3.2929,3.2949,3.2927,3.2948,3.2941,3.2937,3.2949,3.2924,3.2936,3.2914,3.2926,3.2914,3.2939,3.294,3.2937,3.2934,3.294,3.294,3.2944,3.294,3.2922,3.2922,3.2921,3.2921,0,3.299,3.2973,3.299,3.2977,3.2975,3.2991,3.2981,3.2992,3.2982,3.2998,3.3,3.2985,3.2997,3.2983,3.2994,3.2987,3.3021,3.3011,3.3022,3.302,3.305,3.3049,3.3144,3.3157,3.3061,3.3061,3.3062,0,3.3026,3.3039,3.3028,3.3034,3.3031,3.3039,3.3043,3.3023,3.3029,3.3028,3.3041,3.3051,3.3057,3.3079,3.3071,3.3081,3.3073,3.3106,3.3074,3.3082,3.3077,3.3077,3.3081,3.3113,3.3114,3.3115,3.3116,0,3.3093,3.3085,3.309,3.3094,3.3099,3.3102,3.3102,3.3109,3.3089,3.3097,3.3109,3.3115,3.3128,3.314,3.3148,3.3146,3.313,3.3126,3.3134,3.314,3.3147,3.3147,3.3042,3.3124,3.3123,3.3122,3.3122,3.3121,3.3145,3.3157,3.3153,3.3161,3.316,3.3163,3.3174,3.3166,3.3175,3.3183,3.3172,3.3189,3.319,3.3199,3.32,3.3215,3.3202,3.3212,3.3215,3.3218,3.3224,3.3144,3.3216,3.3216,3.3216,3.3216,3.3216,0,3.3213,3.321,3.3218,3.3221,3.3229,3.3211,3.3213,3.3221,3.3235,3.3237,3.3245,3.3262,3.3275,3.327,3.3282,3.3295,3.3288,3.33,3.3299,3.33,3.3234,3.3227,3.3305,3.3305,3.3305,3.3305,3.3305,3.3305,3.325,3.327,3.3263,3.3285,3.3282,3.3297,3.33,3.3304,3.3306,3.3325,3.3336,3.3332,3.3333,3.3346,3.3359,3.3357,3.3364,3.3379,3.3375,3.3313,3.3304,3.3296,3.329,3.338,3.338,3.344,3.3441,3.3441]},{"header":{"parameterUnit":"m.s-1","parameterCategory":1,"la1":30.2991,"la2":30.254,"lo1":-89.0895,"lo2":-89.0444,"dy":0.0017,"dx":0.0017,"nx":28,"ny":28,"refTime":"2025-01-17T09:00:00:Z","depth":0,"parameterNumber":3,"parameterNumberName":"V-component_of_WINDS"},"data":[0,0,0,0,0,0,0,0,0,0,0,0,0,0,0,0,0,0,0,0,0,0,0,0,0,0,0,0,0,0,0,0,0,0,0,0,0,0,0,0,0,0,0,0,0,0,0,0,0,0,0,0,0,0,0,0,0,0,1.8567,1.8568,0,1.8648,1.8649,1.865,1.8654,1.8654,1.8653,1.8652,1.8735,1.8738,1.8741,0,0,0,0,0,0,0,0,0,0,0,0,0,1.8419,1.8421,1.8567,1.8568,1.8569,1.8648,1.8649,1.865,1.8655,1.8653,1.8652,1.8651,1.8734,1.8738,1.8742,0,0,0,0,0,0,0,0,0,0,0,0,0,1.849,1.8422,1.8567,1.8581,1.8583,1.8648,1.8649,1.865,1.8655,1.8653,1.8652,1.8651,1.8733,1.8738,1.8742,1.8799,0,0,1.8756,1.8758,0,0,0,0,0,0,0,0,1.8486,1.8495,1.8578,1.858,1.8583,1.864,1.8627,1.87,1.8655,1.8628,1.8652,1.865,1.8705,1.8712,1.873,1.8803,1.8806,1.8757,1.8759,1.8761,1.8763,0,0,0,0,0,0,0,1.8481,1.8492,1.8599,1.8579,1.8582,1.8584,1.8592,1.8641,1.8673,1.863,1.863,1.864,1.8706,1.8725,1.8732,1.8807,1.8757,1.8761,1.8764,1.8765,1.8933,1.8935,0,0,0,0,0,0,1.8473,1.8488,1.8597,1.8602,1.853,1.8588,1.8597,1.8623,1.8672,1.8679,1.8641,1.864,1.8718,1.8726,1.8735,1.8807,1.8761,1.8766,1.8768,1.8932,1.8934,1.8936,0,0,0,0,0,0,1.847,1.8483,1.8593,1.8545,1.8559,1.8592,1.862,1.8625,1.8645,1.8681,1.8687,1.8655,1.8717,1.8728,1.8783,1.8809,1.8768,1.8772,1.893,1.8932,1.8935,1.8949,0,0,0,0,0,0,1.8465,1.8481,1.8503,1.8545,1.8562,1.864,1.8622,1.8628,1.8653,1.8652,1.8696,1.8702,1.8717,1.8776,1.8788,1.8815,1.8776,1.8928,1.8931,1.8934,1.8947,1.8952,1.8956,0,0,0,0,0,1.846,1.8503,1.8504,1.8517,1.8589,1.8642,1.8651,1.8668,1.8655,1.8677,1.87,1.87,1.8804,1.8782,1.8795,1.8824,1.8926,1.893,1.8934,1.8944,1.8951,1.8956,0,0,0,0,0,0,1.8463,1.8509,1.851,1.8568,1.8601,1.8642,1.8671,1.8674,1.8711,1.8709,1.8728,1.8738,1.8793,1.8814,1.8788,1.8883,1.8864,1.887,1.8868,1.8874,1.8879,1.8874,1.878,0,0,0,0,0,1.847,1.8509,1.8547,1.8594,1.8611,1.8638,1.8661,1.8672,1.8706,1.872,1.8748,1.8782,1.8823,1.8849,1.8888,1.8949,1.896,1.8975,1.898,1.8984,1.899,1.9027,1.9035,1.8948,1.8948,1.8948,0,0,1.8486,1.8516,1.8539,1.8596,1.8622,1.8663,1.865,1.8692,1.8723,1.8727,1.8782,1.8803,1.8842,1.8901,1.8928,1.892,1.9017,1.8989,1.8992,1.8996,1.9031,1.904,1.9047,1.8951,1.895,1.895,0,0,1.8535,1.8561,1.8605,1.8632,1.8672,1.869,1.8701,1.8742,1.8757,1.8811,1.8816,1.8853,1.8921,1.895,1.8974,1.9036,1.9038,1.9048,1.9075,1.911,1.9117,1.9123,1.9148,1.9156,1.9053,1.9053,1.9054,0,1.855,1.8611,1.8627,1.867,1.8696,1.8701,1.8747,1.8772,1.8824,1.8842,1.8831,1.892,1.8946,1.9013,1.9029,1.9047,1.9061,1.9044,1.9114,1.9121,1.9127,1.9151,1.916,1.9055,1.9055,1.9054,1.9054,0,1.8628,1.867,1.8701,1.8751,1.878,1.8824,1.8848,1.8875,1.8883,1.8902,1.8959,1.8991,1.9038,1.9054,1.9062,1.9123,1.9117,1.911,1.9092,1.9136,1.9159,1.9168,1.9056,1.9056,1.9056,1.9055,0,0,1.8682,1.8741,1.8753,1.8777,1.8822,1.8856,1.89,1.8947,1.8971,1.9006,1.9046,1.9105,1.9099,1.9126,1.9137,1.9167,1.9218,1.9157,1.9158,1.917,1.9291,1.9298,1.9308,1.9219,1.922,1.9222,1.9289,0,1.8739,1.8819,1.8836,1.8906,1.8946,1.8952,1.8992,1.9025,1.9044,1.9082,1.9103,1.9146,1.9134,1.9151,1.9181,1.9205,1.9243,1.92,1.9258,1.926,1.9251,1.932,1.9327,1.9388,1.9297,1.9299,1.93,0,1.8816,1.8854,1.8929,1.8971,1.8989,1.9024,1.9069,1.9104,1.9142,1.9154,1.9185,1.9193,1.9241,1.9219,1.9287,1.9258,1.9282,1.9298,1.9301,1.9309,1.9284,1.9332,1.9408,1.9418,1.9314,1.9313,1.9312,0,1.8852,1.8921,1.8976,1.8996,1.9046,1.9071,1.9093,1.9129,1.9157,1.9196,1.9214,1.9258,1.9283,1.9317,1.9337,1.9319,1.9405,1.9384,1.9418,1.9418,1.9438,1.9437,1.9521,1.9449,1.9449,1.9448,1.9448,0,1.8915,1.8961,1.8993,1.9026,1.9079,1.9097,1.9149,1.917,1.9203,1.9242,1.9249,1.9285,1.9308,1.9348,1.9364,1.942,1.943,1.9443,1.9447,1.9444,1.9443,1.9462,1.9459,1.9451,1.945,1.945,1.9449,0,1.8964,1.8987,1.9047,1.909,1.9102,1.9139,1.9176,1.921,1.9229,1.9278,1.9291,1.9322,1.937,1.9393,1.9451,1.9462,1.9526,1.9526,1.9514,1.9516,1.955,1.9548,1.9652,1.9668,1.9583,1.9583,1.9584,0,1.9004,1.904,1.9087,1.9114,1.9137,1.9179,1.9208,1.9228,1.9257,1.9304,1.9333,1.9381,1.942,1.9497,1.9525,1.9571,1.9573,1.9607,1.958,1.9577,1.9578,1.9576,1.9581,1.9612,1.9613,1.9614,1.9614,0,1.9074,1.9084,1.9125,1.917,1.9204,1.924,1.9276,1.9298,1.9323,1.9356,1.9406,1.9437,1.9497,1.9546,1.9594,1.9618,1.9622,1.9622,1.9633,1.9632,1.9625,1.9632,1.953,1.962,1.962,1.9619,1.9619,1.9619,1.9122,1.9155,1.9194,1.924,1.9269,1.9303,1.9338,1.9362,1.9403,1.9455,1.9464,1.9517,1.9556,1.9621,1.9646,1.9688,1.9681,1.9696,1.97,1.9705,1.9708,1.9615,1.9697,1.9697,1.9696,1.9696,1.9696,0,1.9195,1.922,1.9262,1.9313,1.9349,1.9349,1.9389,1.942,1.9467,1.9502,1.9542,1.96,1.9647,1.968,1.9728,1.9756,1.9759,1.9769,1.9768,1.9774,1.971,1.9698,1.9765,1.9765,1.9765,1.9765,1.9765,1.9765,1.9237,1.9294,1.9309,1.9381,1.9406,1.9459,1.9482,1.9514,1.9543,1.9608,1.9648,1.9668,1.9703,1.9755,1.9799,1.9807,1.9826,1.9836,1.9845,1.9785,1.9778,1.9771,1.976,1.9839,1.984,1.9906,1.9906,1.9907]}]]